Location: Silverdale
(47.6506°N, 122.6941°W)
Time: 04:48:31
(UTC+00:00)

Altair - Pass Details

Date: 08 October 2022
Orbit: 1501 x 1682 km, 47.2° (Epoch: 04 December)

Event Time Altitude Azimuth Distance (km) Brightness Sun altitude
Rises 18:32:36 0° 291° (WNW) 4,892 9.8 33.0°
Reaches altitude 10° 18:36:08 10° 283° (WNW) 3,920 9.4 33.3°
Maximum altitude 18:44:38 33° 225° (SW) 2,566 9.3 33.9°
Drops below altitude 10° 18:53:13 10° 166° (SSE) 3,931 11.1 34.4°
Sets 18:56:47 0° 157° (SSE) 4,908 11.2 34.6°
